Weather History for KARA - March, 2013

Change the Weather History Date:

Tuesday, March 26, 2013

  Actual Average Record
Temperature  
Mean Temperature 48 °F 64 °F  
Max Temperature 59 °F 75 °F 85 °F (2012)
Min Temperature 37 °F 53 °F 34 °F (1969)
Degree Days  
Heating Degree Days 17 3  
Month to date heating degree days 177 132  
Since 1 July heating degree days 1064 1348  
Cooling Degree Days 0 2  
Month to date cooling degree days 37 37  
Year to date cooling degree days 85 68  
Moisture  
Dew Point 24 °F    
Average Humidity 45    
Maximum Humidity 64    
Minimum Humidity 25    
Precipitation  
Precipitation 0.00 in 0.13 in 3.87 in (2009)
Month to date precipitation 2.06 3.16  
Year to date precipitation 18.81 12.57  
Sea Level Pressure  
Sea Level Pressure 30.38 in    
Wind  
Wind Speed 9 mph (North)    
Max Wind Speed 20 mph    
Max Gust Speed 28 mph    
Visibility 10 miles    
Events      
T = Trace of Precipitation, MM = Missing Value Source: NWS Daily Summary

Daily Weather History Graph

Daily Weather History Graph

Search for Another Location

Airport or City:

Trip Planner

Search our weather history database for the weather conditions in past years. The results will help you decide how hot, cold, wet, or windy it might be!

Date:

Astronomy

Mar. 26, 2013 Rise Set
Actual Time 7:03 AM CDT 7:22 PM CDT
Civil Twilight 6:39 AM CDT 7:46 PM CDT
Nautical Twilight 6:11 AM CDT 8:14 PM CDT
Astronomical Twilight 5:43 AM CDT 8:43 PM CDT
Moon 6:58 PM CDT 6:19 AM CDT
Length of Visible Light 13h 06m
Length of Day
12h 19m
Waxing Gibbous, 99% of the Moon is Illuminated
Mar 26
Waxing Gibbous
Mar 27
Full
Apr 2
Last Quarter
Apr 10
New
Apr 18
First Quarter

Hourly Weather History & Observations

Time (CDT) Temp. Windchill Dew Point Humidity Pressure Visibility Wind Dir Wind Speed Gust Speed Precip Events Conditions
12:53 AM 45.0 °F 41.8 °F 26.1 °F 48% 30.33 in 10.0 mi NNW 5.8 mph - N/A   Clear
1:53 AM 45.0 °F 40.6 °F 23.0 °F 42% 30.34 in 10.0 mi NNW 8.1 mph - N/A   Clear
2:53 AM 41.0 °F 39.0 °F 27.0 °F 57% 30.35 in 10.0 mi NW 3.5 mph - N/A   Clear
3:53 AM 42.1 °F 36.1 °F 24.1 °F 49% 30.35 in 10.0 mi North 10.4 mph - N/A   Clear
4:53 AM 41.0 °F 34.3 °F 25.0 °F 53% 30.36 in 10.0 mi North 11.5 mph - N/A   Clear
5:53 AM 39.9 °F 32.9 °F 24.1 °F 53% 30.38 in 10.0 mi North 11.5 mph - N/A   Clear
6:53 AM 37.9 °F 32.7 °F 24.1 °F 57% 30.40 in 10.0 mi North 6.9 mph - N/A   Clear
7:53 AM 39.0 °F - 28.0 °F 65% 30.43 in 10.0 mi Calm Calm - N/A   Clear
8:53 AM 46.0 °F 41.9 °F 23.0 °F 40% 30.45 in 10.0 mi North 8.1 mph - N/A   Clear
9:53 AM 48.9 °F - 19.9 °F 32% 30.45 in 10.0 mi North 11.5 mph 19.6 mph N/A   Clear
10:53 AM 51.1 °F - 19.9 °F 29% 30.44 in 10.0 mi NNW 12.7 mph - N/A   Clear
11:53 AM 52.0 °F - 19.9 °F 28% 30.43 in 10.0 mi NNW 15.0 mph 23.0 mph N/A   Clear
12:53 PM 53.1 °F - 19.9 °F 27% 30.41 in 10.0 mi NNW 17.3 mph 20.7 mph N/A   Clear
1:53 PM 55.9 °F - 21.9 °F 27% 30.39 in 10.0 mi NNW 13.8 mph 23.0 mph N/A   Clear
2:53 PM 57.0 °F - 24.1 °F 28% 30.37 in 10.0 mi North 15.0 mph 24.2 mph N/A   Clear
3:53 PM 57.9 °F - 23.0 °F 26% 30.35 in 10.0 mi North 10.4 mph 19.6 mph N/A   Clear
4:53 PM 57.9 °F - 24.1 °F 27% 30.34 in 10.0 mi North 10.4 mph - N/A   Clear
5:53 PM 57.0 °F - 23.0 °F 27% 30.34 in 10.0 mi North 12.7 mph - N/A   Clear
6:53 PM 54.0 °F - 24.1 °F 31% 30.34 in 10.0 mi North 9.2 mph - N/A   Clear
7:53 PM 48.9 °F - 26.1 °F 41% 30.36 in 10.0 mi North 5.8 mph - N/A   Clear
8:53 PM 48.9 °F - 24.1 °F 38% 30.36 in 10.0 mi North 3.5 mph - N/A   Clear
9:53 PM 45.0 °F 43.5 °F 28.0 °F 52% 30.38 in 10.0 mi East 3.5 mph - N/A   Clear
10:53 PM 43.0 °F 41.3 °F 30.0 °F 60% 30.39 in 10.0 mi East 3.5 mph - N/A   Clear
11:53 PM 45.0 °F 41.2 °F 30.0 °F 56% 30.38 in 10.0 mi ENE 6.9 mph - N/A   Clear